Find Kosmos-2117

NORAD ID: 21031 Int'l Des: 1990-114 Owner: UNKS Country: SU operational
LEOCIRCULARPOLAR

Current View

Loading 3D Globe...

About Kosmos-2117

Description loading...

Upcoming Passes

Passes for default location (London). Set your location on the main map for personalized predictions.

Altitude History

Loading altitude history...

Two-Line Element Set

1 21031U 90114D 26149.53788383 .00000032 00000-0 11228-3 0 9991
2 21031 82.5759 209.3063 0009430 108.7791 11.6935 12.65030771635918
Epoch: May 29, 2026 • Age: 13 hours

Current Status

Altitude 1411.0 km
Velocity 7.15 km/s
Sub-Earth Point -12.27°S, 62.69°W
Launch Date Dec 22, 1990
Age 35.4 years
Type other

Technical Details

Classification Payload
Mass 225.00 kg
Dry Mass 225.00 kg
Total Mass 225.00 kg
Length 1.60 m
Diameter 0.80 m
Span 7.00 m
Shape Cyl + Ant
Manufacturer NPOPM
Bus Type Strela-3
Phase Status In Orbit
Owner/State UNKS/SU

Most Searched